STARLINK-37111, 68381

Orbit data source: Space-Track

STARLINK-37111, 68381 is a payload satellite owned by SpaceX/Seattle (US) in SSO that was launched on Thu, 26 Mar 2026 UTC via an FALCON 9 launch vehicle from the Air Force Western Test Range (AFWTR). Payload-class satellites include a variety of spacecraft equipped with specific instruments for various scientific and technological missions. These include communications satellites like Starlink; space stations such as the ISS; scientific satellites like the Hubble; Earth observation satellites from companies like Planet Labs, Umbra, and HawkEye 360; GPS; miniature CubeSats for education and research; and military/defense satellites.

Loading next visibility...
Identifier
68381, 2026-063B
Orbit
SSO
Country
Flag of USUS
Related business
Manufacturer
SpaceX/Seattle
Mission
Operational spacecraft
Bus & Motor
STARLINK V2MO, Unknown motor
Mass
575 kg wet, ~530 kg dry
Launch date (UTC)
2026-03-26 (3 months ago)
Launch vehicle
FALCON 9
Launch site
Air Force Western Test Range (AFWTR)
Object type
Payload
Rocket body
Debris
Shape & HBR
Unknown shape, 17.7 m
Radar Cross Section
Large (>1 m²)

Expand to show TLE details & history
Last TLE update: 6 hours ago

TLE from 6 hours ago
0 STARLINK-37111
1 68381U 26063B   26165.86397671  .00013836  00000-0  42994-3 0  9992
2 68381  97.2833 308.0778 0000799 286.3026  73.8129 15.33458306 12781
Epoch: 2026-06-14T20:44Z
TLE epoch observation values (Epoch: 2026-06-14T20:44:07.587Z)
Latitude
-0.00003°
Longitude
93.88759°
Altitude
468.463 km
Speed
7.632 km/s
True Right ascension
20h 32m 18s
True Declination
0° 00' 00"
Sunlit
Object was in full shadow at epoch
Visualization orbit readout
Latitude
Unknown
Longitude
Unknown
Altitude
Unknown
Speed
Unknown
Apparent Right ascension
Unknown
Apparent Declination
Unknown
Sunlit
N/A
Visualization observer readout
Local Sidereal Time
13:01:10
Azimuth
Unknown
Elevation
Unknown
Doppler factor
Unknown
Orbital elements
Apogee altitude
462.993 km
Perigee altitude
461.9 km
Semi-major axis
6,840.583 km
Eccentricity
0.00008
Inclination
97.2833°
RAAN
308.0778°
Arg. of periapsis
286.3026°
True anomaly
73.82169°
Mean anomaly
73.8129°
Eccentric anomaly
73.8173°
Mean motion
3.83622 °/min
Orbital period
93.84 mins
BSTAR
0.00042994
Loading maneuver chart data...
Computing Atmospheric mass density...
Loading historical data...
Loading historical data...
Loading historical data...
Loading historical data...
Loading historical data...
Loading historical data...
Loading historical data...

Documentation

Showing up to 5 results
|